TimeEDT,TemperatureF,Dew PointF,Humidity,Sea Level PressureIn,VisibilityMPH,Wind Direction,Wind SpeedMPH,Gust SpeedMPH,PrecipitationIn,Events,Conditions,WindDirDegrees,DateUTC
12:54 AM,39.0,19.0,45,29.77,10.0,WNW,15.0,-,N/A,,Partly Cloudy,290,2013-03-14 04:54:00
1:54 AM,37.9,19.0,47,29.77,10.0,WNW,10.4,-,N/A,,Partly Cloudy,290,2013-03-14 05:54:00
2:54 AM,37.0,21.0,52,29.77,10.0,West,15.0,24.2,N/A,,Partly Cloudy,280,2013-03-14 06:54:00
3:54 AM,36.0,21.9,57,29.76,10.0,WNW,11.5,19.6,N/A,,Overcast,290,2013-03-14 07:54:00
4:54 AM,35.1,21.0,57,29.75,10.0,WNW,13.8,-,N/A,,Scattered Clouds,290,2013-03-14 08:54:00
5:54 AM,35.1,19.9,54,29.77,10.0,West,12.7,-,N/A,,Clear,280,2013-03-14 09:54:00
6:54 AM,34.0,18.0,52,29.78,10.0,WNW,15.0,20.7,N/A,,Mostly Cloudy,290,2013-03-14 10:54:00
7:54 AM,33.1,16.0,50,29.78,10.0,West,11.5,-,N/A,,Mostly Cloudy,280,2013-03-14 11:54:00
8:54 AM,33.1,15.1,48,29.78,10.0,West,17.3,23.0,N/A,,Mostly Cloudy,270,2013-03-14 12:54:00
9:54 AM,34.0,14.0,44,29.78,10.0,WNW,16.1,23.0,N/A,,Overcast,290,2013-03-14 13:54:00
10:54 AM,34.0,12.9,42,29.78,10.0,WNW,13.8,20.7,N/A,,Mostly Cloudy,290,2013-03-14 14:54:00
11:54 AM,35.1,12.9,40,29.75,10.0,West,16.1,21.9,N/A,,Scattered Clouds,280,2013-03-14 15:54:00
12:54 PM,36.0,12.0,37,29.73,10.0,West,18.4,23.0,N/A,,Overcast,260,2013-03-14 16:54:00
1:54 PM,34.0,10.9,38,29.72,10.0,West,19.6,25.3,N/A,,Mostly Cloudy,270,2013-03-14 17:54:00
2:54 PM,34.0,10.9,38,29.71,10.0,WNW,17.3,25.3,N/A,,Mostly Cloudy,300,2013-03-14 18:54:00
3:54 PM,34.0,10.9,38,29.72,10.0,West,21.9,28.8,N/A,,Mostly Cloudy,280,2013-03-14 19:54:00
4:54 PM,33.1,10.0,38,29.72,10.0,West,18.4,28.8,N/A,,Mostly Cloudy,280,2013-03-14 20:54:00
5:54 PM,32.0,10.0,40,29.74,10.0,West,18.4,26.5,N/A,,Mostly Cloudy,270,2013-03-14 21:54:00
6:54 PM,30.0,10.0,43,29.77,10.0,WNW,20.7,29.9,N/A,,Scattered Clouds,300,2013-03-14 22:54:00
7:54 PM,28.0,8.1,43,29.79,10.0,WNW,19.6,32.2,N/A,,Scattered Clouds,300,2013-03-14 23:54:00
8:54 PM,28.0,7.0,41,29.81,10.0,WNW,23.0,29.9,N/A,,Partly Cloudy,290,2013-03-15 00:54:00
9:54 PM,26.1,5.0,41,29.83,10.0,NW,17.3,25.3,N/A,,Mostly Cloudy,310,2013-03-15 01:54:00
10:54 PM,25.0,5.0,43,29.83,10.0,NW,21.9,26.5,N/A,,Partly Cloudy,320,2013-03-15 02:54:00
11:54 PM,24.1,6.1,46,29.84,10.0,WNW,11.5,21.9,N/A,,Scattered Clouds,300,2013-03-15 03:54:00